Regional Weather Roundup
Issued by NWS

Home | Current Version | Previous Version | Graphics & Text | Print | Product List | Glossary On
Versions: 1 2 3 4 5 6 7 8 9 10 11 12 13 14 15 16 17 18 19 20 21 22 23 24 25 26 27 28 29 30 31 32 33 34 35 36 37 38 39 40 41 42 43 44 45 46 47 48 49 50
000
ASUS45 KTFX 210710
RWRMT
MONTANA REGIONAL WEATHER ROUNDUP
NATIONAL WEATHER SERVICE GREAT FALLS MT
100 AM MDT THU MAY 21 2015

NOTE: "FAIR" INDICATES FEW OR NO CLOUDS BELOW 12000 FEET WITH NO
SIGNIFICANT WEATHER AND/OR OBSTRUCTIONS TO VISIBILITY.

MTZ001>007-043-210800-
WEST OF THE DIVIDE

CITY           SKY/WX    TMP DP  RH WIND       PRES   REMARKS
KALISPELL      SUNNY     47  32  56 CALM      29.97R
MISSOULA       CLEAR     57  32  38 E9        29.99R
BUTTE          CLOUDY    49  34  56 S14       30.08S
MULLAN PASS    CLEAR     51  31  46 SE8       30.03S
DEER LODGE       N/A     43  32  65 CALM      30.10R
EUREKA           N/A     52  34  50 E3          N/A
HAMILTON         N/A     54  45  71 SE5       29.98R
LIBBY            N/A     48  37  66 E3        29.97R
RONAN            N/A     59  36  42 W2        30.01R
$$

MTZ008-052>055-210800-
SOUTHWEST MONTANA

CITY           SKY/WX    TMP DP  RH WIND       PRES   REMARKS
BOZEMAN        CLEAR     47  35  63 VRB3      30.08R
DILLON         CLOUDY    50  41  71 S8        30.05S
W YELLOWSTONE  CLOUDY    43  39  87 CALM      30.14S
THREE FORKS      N/A     49  49 100 CALM      30.07R
TWIN BRIDGES     N/A     52  34  50 N9        30.04S
$$

MTZ009-010-012-014-046-048-049-054-210800-
EAST SLOPES AND CENTRAL MONTANA

CITY           SKY/WX    TMP DP  RH WIND       PRES   REMARKS
CUT BANK       CLEAR     46  27  47 E12       30.09S
GREAT FALLS    CLEAR     42  29  59 N3        30.07S
MALMSTROM AFB  CLEAR     41  32  70 S8        30.08R
HELENA         CLEAR     50  30  46 SW6       30.06R
CONRAD           N/A     43  31  63 NE1       30.10S
$$

MTZ011-013-016-021-045-047-050-051-210800-
NORTH CENTRAL MONTANA

CITY           SKY/WX    TMP DP  RH WIND       PRES   REMARKS
HAVRE          CLEAR     43  33  68 E7        30.13S
LEWISTOWN      CLEAR     42  29  59 E10       30.14S
N BAR RANCH    FAIR      43  32  65 S15       30.20S
CHINOOK          N/A     45  34  65 E7        30.15S
FORT BENTON      N/A     48  32  53 E9        30.10S
$$

MTZ017>020-022>027-061-062-210800-
NORTHEAST MONTANA

CITY           SKY/WX    TMP DP  RH WIND       PRES   REMARKS
GLASGOW        CLEAR     44  31  60 E9        30.20S
JORDAN           N/A     40  31  70 CALM      30.20S
SIDNEY         CLEAR     41  34  75 CALM      30.21S
WOLF POINT     CLEAR     40  33  76 W5        30.21S
MALTA            N/A     45  31  58 CALM      30.14S
PLENTYWOOD       N/A     52  28  40 NW5       30.20S
POPLAR           N/A     48  34  57 CALM      30.21S
$$

MTZ028>42-056>058-210800-
SOUTHCENTRAL AND SOUTHEAST MONTANA

CITY           SKY/WX    TMP DP  RH WIND       PRES   REMARKS
BAKER          CLEAR     40  28  62 CALM      30.24S
BILLINGS       CLEAR     45  35  68 E7        30.15F
LIVINGSTON     CLEAR     44  34  67 E10       30.12R
MILES CITY     CLEAR     46  29  51 S6        30.21S
BIG TIMBER       N/A     43  36  75 N6        30.15S
FORSYTH          N/A     45  34  65 SE5       30.21S
LAUREL           N/A     42  33  70 N6        30.12S
ROUNDUP          N/A     45  31  58 CALM      30.08S
$$

REGIONAL REPORTS...DAKOTAS

CITY           SKY/WX    TMP DP  RH WIND       PRES   REMARKS
WILLISTON      CLEAR     48  31  51 W6        30.19S
MINOT          PTCLDY    52  34  50 SW10      30.12F
DICKINSON      CLEAR     44  28  53 SW12      30.20S
CROSBY         FAIR      50  32  50 W14       30.18R
WATFORD CITY   FAIR      41  32  70 SW7       30.18S
BISMARCK       CLEAR     50  32  50 W3        30.18S
GRAND FORKS    CLEAR     46  39  76 NW8       30.07S
FARGO          PTCLDY    52  41  66 NW8       30.05S
BUFFALO SD       N/A     43  28  55 W7        30.18F
RAPID CITY     CLEAR     36  32  85 CALM      30.26F
$$

REGIONAL REPORTS...WYOMING/IDAHO/WASHINGTON

CITY           SKY/WX    TMP DP  RH WIND       PRES   REMARKS
GILLETTE       CLEAR     31  29  92 S7        30.25S WCI  24
SHERIDAN       CLEAR     43  35  73 SE13      30.18F
BUFFALO WY     CLEAR     39  35  86 S12       30.21F WCI  32
CODY           PTCLDY    39  36  87 S3        30.16S
YELLOWSTONE LA   N/A     37  32  82 CALM      30.19S
IDAHO FALLS    CLOUDY    50  46  86 N3        30.06S
SALMON         PTCLDY    55  41  58 W6        29.98S
BOISE          MOCLDY    59  48  67 SE7       29.91S
SPOKANE        MOCLDY    59  43  55 W5        29.87R
$$

REGIONAL REPORTS...ALBERTA

CITY           SKY/WX    TMP DP  RH WIND       PRES   REMARKS
EDMONTON       CLEAR     46  28  49 SE5       30.05S
CALGARY        CLEAR     46  27  46 S9        30.06F
MEDICINE HAT   CLEAR     46  28  49 N6        30.12F
$$

REGIONAL REPORTS...SASKATCHEWAN

CITY           SKY/WX    TMP DP  RH WIND       PRES   REMARKS
SWIFT CURRENT  CLEAR     43  27  52 S10       30.18F
REGINA         CLEAR     46  30  53 N5        30.17S
SASKATOON      CLEAR     52  27  37 SW8       30.16S
$$



USA.gov is the U.S. government's official web portal to all federal, state and local government web resources and services.